^^
Saratoga-Weather Station Historical Data
Daily Summary for February 14, 2020 Units:  English    Metric   Both
Daily Weekly Monthly Yearly Custom
  High: Low: Average:
Temperature: 59.9 °F 43 °F 51.6 °F
Dew Point: 41.7 °F 36.3 °F 38.3 °F
Humidity: 78% 46% 62%
Wind Speed: 11mph 0mph 3mph
Wind Gust: 16mph - -
Wind- - South
Pressure: 30 in 29.9 in -
Precipitation: 0.02 in    
Historical Graphs
 
 
Tabular Data for February 14, 2020
Time Temperature Dew Point Pressure Wind Wind Speed Wind Gust Humidity Rainfall Rate (Hourly) solar
00:02 49.3 °F 39.2 °F 29.9 in North 2 mph 4 mph 68% 0 in 0 W/m2
00:07 49.3 °F 39.6 °F 29.9 in NNE 2.9 mph 12 mph 69% 0 in 0 W/m2
00:12 48.9 °F 39.2 °F 29.9 in WNW 4 mph 7 mph 69% 0 in 0 W/m2
00:17 48.9 °F 39.2 °F 29.9 in North 0.9 mph 10 mph 69% 0 in 0 W/m2
00:22 48.7 °F 39.4 °F 29.9 in North 2.9 mph 8 mph 70% 0 in 0 W/m2
00:27 48.7 °F 39.4 °F 29.9 in West 2.9 mph 4 mph 70% 0 in 0 W/m2
00:32 48.7 °F 39.4 °F 29.9 in NNW 2 mph 4 mph 70% 0 in 0 W/m2
00:37 48.6 °F 39.6 °F 29.9 in WSW 4 mph 7 mph 71% 0 in 0 W/m2
00:42 48.6 °F 39.2 °F 29.9 in NW 2 mph 9 mph 70% 0 in 0 W/m2
00:47 48.4 °F 39 °F 29.9 in NW 2.9 mph 5 mph 70% 0 in 0 W/m2
00:52 48.4 °F 39.4 °F 29.9 in NNW 2 mph 9 mph 71% 0 in 0 W/m2
00:57 48.4 °F 39.4 °F 29.9 in WNW 4 mph 5 mph 71% 0 in 0 W/m2
01:02 48.2 °F 39.2 °F 29.9 in SSW 0.9 mph 6 mph 71% 0 in 0 W/m2
01:07 48 °F 39 °F 29.9 in WSW 2.9 mph 4 mph 71% 0 in 0 W/m2
01:12 48 °F 39 °F 29.9 in ENE 10 mph 10 mph 71% 0 in 0 W/m2
01:17 48 °F 39 °F 29.9 in WNW 2 mph 8 mph 71% 0 in 0 W/m2
01:22 47.8 °F 38.8 °F 29.9 in NNW 4.9 mph 6 mph 71% 0 in 0 W/m2
01:27 47.8 °F 38.8 °F 29.9 in West 0.9 mph 5 mph 71% 0 in 0 W/m2
01:32 47.7 °F 39 °F 29.9 in SW 0.9 mph 5 mph 72% 0 in 0 W/m2
01:37 47.7 °F 39 °F 29.9 in NNW 2 mph 4 mph 72% 0 in 0 W/m2
01:42 47.5 °F 38.8 °F 29.9 in NNE 0.9 mph 3 mph 72% 0 in 0 W/m2
01:47 47.3 °F 38.7 °F 29.9 in NNW 2.9 mph 4 mph 72% 0 in 0 W/m2
01:52 47.1 °F 38.5 °F 29.9 in WNW 2.9 mph 6 mph 72% 0 in 0 W/m2
01:57 46.9 °F 38.3 °F 29.9 in NNW 2 mph 2 mph 72% 0 in 0 W/m2
02:02 46.8 °F 38.3 °F 29.9 in WNW 2 mph 5 mph 72% 0 in 0 W/m2
02:07 46.8 °F 38.5 °F 29.9 in NE 2.9 mph 10 mph 73% 0 in 0 W/m2
02:12 46.6 °F 38.1 °F 29.9 in East 2 mph 6 mph 72% 0 in 0 W/m2
02:17 46.6 °F 38.5 °F 29.9 in SE 2.9 mph 4 mph 73% 0 in 0 W/m2
02:22 46.4 °F 38.3 °F 29.9 in NE 0.9 mph 6 mph 73% 0 in 0 W/m2
02:28 46.2 °F 38.1 °F 29.9 in NE 2.9 mph 10 mph 73% 0 in 0 W/m2
02:33 46.2 °F 38.1 °F 29.9 in WSW 4 mph 7 mph 73% 0 in 0 W/m2
02:38 46 °F 37.9 °F 29.9 in NW 4 mph 7 mph 73% 0 in 0 W/m2
02:43 46 °F 37.9 °F 29.9 in ESE 2 mph 6 mph 73% 0 in 0 W/m2
02:48 46 °F 37.9 °F 29.9 in North 2.9 mph 4 mph 73% 0 in 0 W/m2
02:53 46 °F 37.9 °F 29.9 in NNW 0.9 mph 5 mph 73% 0 in 0 W/m2
02:58 45.9 °F 37.8 °F 29.9 in SSW 0.9 mph 3 mph 73% 0 in 0 W/m2
03:03 45.9 °F 37.8 °F 29.9 in ESE 2.9 mph 4 mph 73% 0 in 0 W/m2
03:08 45.7 °F 37.9 °F 29.9 in West 4 mph 6 mph 74% 0 in 0 W/m2
03:13 45.7 °F 37.6 °F 29.9 in NNW 4.9 mph 6 mph 73% 0 in 0 W/m2
03:18 45.7 °F 37.9 °F 29.9 in NNW 2 mph 7 mph 74% 0 in 0 W/m2
03:23 45.5 °F 37.4 °F 29.9 in WNW 0.9 mph 4 mph 73% 0 in 0 W/m2
03:28 45.3 °F 37.6 °F 29.9 in Calm   3 mph 74% 0 in 0 W/m2
03:33 45.3 °F 37.6 °F 29.9 in ENE 6 mph 8 mph 74% 0 in 0 W/m2
03:38 45.1 °F 37.4 °F 29.9 in NNE 0.9 mph 3 mph 74% 0 in 0 W/m2
03:43 45.1 °F 37.4 °F 29.9 in ENE 0.9 mph 8 mph 74% 0 in 0 W/m2
03:48 45.1 °F 37.4 °F 29.9 in SSW 0.9 mph 3 mph 74% 0 in 0 W/m2
03:53 45 °F 37.2 °F 29.9 in NW 2 mph 4 mph 74% 0 in 0 W/m2
03:58 45 °F 37.2 °F 29.9 in ENE 4 mph 5 mph 74% 0 in 0 W/m2
04:03 44.8 °F 37 °F 29.9 in ESE 2.9 mph 4 mph 74% 0 in 0 W/m2
04:08 44.6 °F 36.9 °F 29.9 in WNW 4.9 mph 7 mph 74% 0 in 0 W/m2
04:13 44.4 °F 37 °F 29.9 in NNW 4.9 mph 5 mph 75% 0 in 0 W/m2
04:18 44.4 °F 37 °F 29.9 in ENE 0.9 mph 4 mph 75% 0 in 0 W/m2
04:23 44.2 °F 36.9 °F 29.9 in NNW 4 mph 4 mph 75% 0 in 0 W/m2
04:28 44.2 °F 37.2 °F 29.9 in ESE 2 mph 7 mph 76% 0 in 0 W/m2
04:33 44.1 °F 37 °F 29.9 in NNW 2.9 mph 6 mph 76% 0 in 0 W/m2
04:38 44.1 °F 37 °F 29.9 in ENE 2.9 mph 4 mph 76% 0 in 0 W/m2
04:43 44.1 °F 37 °F 29.9 in Calm   3 mph 76% 0 in 0 W/m2
04:48 44.1 °F 37 °F 29.9 in NNE 0.9 mph 6 mph 76% 0 in 0 W/m2
04:53 43.9 °F 36.9 °F 29.9 in North 4 mph 8 mph 76% 0 in 0 W/m2
04:58 43.9 °F 36.9 °F 29.9 in SE 2 mph 5 mph 76% 0 in 0 W/m2
05:03 43.9 °F 36.9 °F 29.9 in NW 9 mph 9 mph 76% 0 in 0 W/m2
05:08 43.9 °F 36.9 °F 29.9 in South 0.9 mph 3 mph 76% 0 in 0 W/m2
05:13 43.7 °F 36.7 °F 30 in East 2.9 mph 5 mph 76% 0 in 0 W/m2
05:18 43.7 °F 36.7 °F 29.9 in WSW 2.9 mph 3 mph 76% 0 in 0 W/m2
05:23 43.5 °F 36.5 °F 29.9 in NE 6 mph 6 mph 76% 0 in 0 W/m2
05:28 43.5 °F 36.5 °F 30 in NNW 8.1 mph 8 mph 76% 0 in 0 W/m2
05:33 43.5 °F 36.5 °F 30 in West 4 mph 9 mph 76% 0 in 0 W/m2
05:38 43.5 °F 36.5 °F 30 in North 0.9 mph 9 mph 76% 0 in 0 W/m2
05:43 43.3 °F 36.3 °F 30 in WNW 4.9 mph 5 mph 76% 0 in 0 W/m2
05:49 43.3 °F 36.3 °F 30 in North 4 mph 9 mph 76% 0 in 0 W/m2
05:54 43.3 °F 36.3 °F 30 in WSW 0.9 mph 2 mph 76% 0 in 0 W/m2
05:59 43.2 °F 36.5 °F 30 in ENE 2.9 mph 8 mph 77% 0 in 5 W/m2
06:04 43.2 °F 36.5 °F 30 in SSW 2.9 mph 9 mph 77% 0 in 7 W/m2
06:09 43.2 °F 36.5 °F 30 in NNW 6 mph 8 mph 77% 0 in 11 W/m2
06:14 43.2 °F 36.5 °F 30 in North 2.9 mph 4 mph 77% 0 in 14 W/m2
06:19 43.2 °F 36.5 °F 30 in NE 2 mph 3 mph 77% 0 in 19 W/m2
06:24 43 °F 36.3 °F 30 in North 6 mph 9 mph 77% 0 in 28 W/m2
06:29 43 °F 36.3 °F 30 in NNW 6 mph 6 mph 77% 0 in 33 W/m2
06:34 43 °F 36.7 °F 30 in NNE 0.9 mph 9 mph 78% 0 in 37 W/m2
06:39 43 °F 36.3 °F 30 in ENE 2.9 mph 10 mph 77% 0 in 40 W/m2
06:44 43 °F 36.7 °F 30 in NNW 0.9 mph 7 mph 78% 0 in 44 W/m2
06:49 43 °F 36.7 °F 30 in NW 4.9 mph 10 mph 78% 0 in 49 W/m2
06:54 43 °F 36.7 °F 30 in East 2.9 mph 4 mph 78% 0 in 51 W/m2
06:59 43 °F 36.7 °F 30 in NE 2 mph 6 mph 78% 0 in 53 W/m2
07:04 43 °F 36.7 °F 30 in WNW 2.9 mph 5 mph 78% 0 in 60 W/m2
07:09 43 °F 36.7 °F 30 in NW 2 mph 4 mph 78% 0 in 56 W/m2
07:14 43 °F 36.7 °F 30 in SW 4.9 mph 8 mph 78% 0 in 54 W/m2
07:19 43 °F 36.7 °F 30 in North 4 mph 6 mph 78% 0 in 56 W/m2
07:24 43 °F 36.7 °F 30 in North 2.9 mph 6 mph 78% 0 in 60 W/m2
07:29 43.2 °F 36.7 °F 30 in NW 6.9 mph 12 mph 78% 0 in 65 W/m2
07:34 43.3 °F 36.9 °F 30 in East 8.1 mph 8 mph 78% 0 in 70 W/m2
07:39 43.3 °F 36.9 °F 30 in NE 4 mph 12 mph 78% 0 in 67 W/m2
07:44 43.5 °F 37 °F 30 in East 2 mph 4 mph 78% 0 in 69 W/m2
07:49 43.5 °F 37 °F 30 in ESE 2 mph 4 mph 78% 0 in 109 W/m2
07:54 43.9 °F 37.4 °F 30 in ESE 2.9 mph 4 mph 78% 0 in 218 W/m2
07:59 44.2 °F 37.8 °F 30 in Calm   7 mph 78% 0 in 253 W/m2
08:04 44.6 °F 37.6 °F 30 in WNW 0.9 mph 3 mph 76% 0 in 264 W/m2
08:09 44.8 °F 37.8 °F 30 in North 2 mph 4 mph 76% 0 in 279 W/m2
08:14 45.1 °F 37.9 °F 30 in SE 2 mph 11 mph 76% 0 in 290 W/m2
08:19 45.3 °F 37.9 °F 30 in NW 2.9 mph 7 mph 75% 0 in 302 W/m2
08:24 45.5 °F 38.1 °F 30 in NNW 11 mph 11 mph 75% 0 in 315 W/m2
08:29 45.9 °F 38.1 °F 30 in NE 4 mph 7 mph 74% 0 in 330 W/m2
08:34 46.2 °F 38.5 °F 30 in ESE 0.9 mph 9 mph 74% 0 in 341 W/m2
08:39 46.6 °F 38.5 °F 30 in NW 2 mph 6 mph 73% 0 in 359 W/m2
08:44 46.8 °F 38.5 °F 30 in East 2.9 mph 4 mph 73% 0 in 367 W/m2
08:49 46.9 °F 38.3 °F 30 in ENE 2 mph 9 mph 72% 0 in 383 W/m2
08:54 46.9 °F 38.3 °F 30 in NNW 2 mph 11 mph 72% 0 in 390 W/m2
08:59 47.1 °F 38.5 °F 30 in ENE 0.9 mph 4 mph 72% 0 in 410 W/m2
09:04 47.7 °F 38.7 °F 30 in West 6 mph 7 mph 71% 0 in 422 W/m2
09:09 47.7 °F 38.3 °F 30 in NNE 4 mph 5 mph 70% 0 in 436 W/m2
09:14 48 °F 38.7 °F 30 in SW 2.9 mph 8 mph 70% 0 in 452 W/m2
09:19 48.2 °F 38.5 °F 30 in NW 4.9 mph 9 mph 69% 0 in 462 W/m2
09:24 48.4 °F 38.7 °F 30 in SE 2 mph 5 mph 69% 0 in 478 W/m2
09:29 48.7 °F 38.7 °F 30 in North 4.9 mph 11 mph 68% 0 in 487 W/m2
09:34 48.9 °F 38.8 °F 30 in NNW 8.1 mph 12 mph 68% 0 in 496 W/m2
09:39 49.3 °F 39.2 °F 30 in SSE 2.9 mph 8 mph 68% 0 in 513 W/m2
09:44 49.5 °F 39.4 °F 30 in NE 2.9 mph 6 mph 68% 0 in 527 W/m2
09:49 49.8 °F 38.8 °F 30 in ENE 0.9 mph 10 mph 66% 0 in 531 W/m2
09:54 50.2 °F 38.8 °F 30 in NE 2.9 mph 5 mph 65% 0 in 550 W/m2
09:59 50.4 °F 39 °F 30 in NNE 4.9 mph 6 mph 65% 0 in 552 W/m2
10:04 50.4 °F 39 °F 30 in ENE 0.9 mph 5 mph 65% 0 in 575 W/m2
10:09 50.5 °F 39.2 °F 30 in NW 4 mph 7 mph 65% 0 in 517 W/m2
10:14 50.7 °F 39 °F 30 in NNW 2 mph 10 mph 64% 0 in 102 W/m2
10:19 51.1 °F 38.8 °F 30 in ENE 2 mph 10 mph 63% 0 in 165 W/m2
10:24 51.4 °F 38.8 °F 30 in NW 4.9 mph 7 mph 62% 0 in 624 W/m2
10:29 51.6 °F 38.7 °F 30 in NE 2.9 mph 4 mph 61% 0 in 635 W/m2
10:34 52 °F 38.5 °F 30 in East 4 mph 12 mph 60% 0 in 636 W/m2
10:39 52.2 °F 39.2 °F 30 in East 0.9 mph 5 mph 61% 0 in 656 W/m2
10:44 52.5 °F 39 °F 30 in ENE 4 mph 8 mph 60% 0 in 666 W/m2
10:49 52.5 °F 39 °F 30 in NNW 2.9 mph 11 mph 60% 0 in 673 W/m2
10:54 52.5 °F 39 °F 30 in NE 0.9 mph 5 mph 60% 0 in 675 W/m2
10:59 52.7 °F 38.8 °F 30 in SE 8.1 mph 12 mph 59% 0 in 686 W/m2
11:04 52.9 °F 39.7 °F 30 in East 2.9 mph 6 mph 61% 0 in 698 W/m2
11:09 53.1 °F 39.2 °F 30 in WSW 8.1 mph 9 mph 59% 0 in 701 W/m2
11:14 53.2 °F 39.7 °F 30 in SW 2.9 mph 6 mph 60% 0 in 710 W/m2
11:19 53.4 °F 39.4 °F 30 in NW 4 mph 5 mph 59% 0 in 717 W/m2
11:24 53.6 °F 39.2 °F 30 in NW 2.9 mph 7 mph 58% 0 in 715 W/m2
11:29 53.6 °F 39.2 °F 30 in NE 2 mph 8 mph 58% 0 in 763 W/m2
11:35 54.1 °F 40.6 °F 30 in SSE 2.9 mph 8 mph 60% 0 in 816 W/m2
11:40 54.3 °F 39.4 °F 30 in SE 2 mph 9 mph 57% 0 in 826 W/m2
11:45 54.5 °F 39.6 °F 30 in NW 2.9 mph 8 mph 57% 0 in 206 W/m2
11:50 54 °F 39.6 °F 30 in NW 4.9 mph 7 mph 58% 0 in 487 W/m2
11:55 54 °F 39.6 °F 30 in West 6.9 mph 12 mph 58% 0 in 851 W/m2
12:00 54.7 °F 40.3 °F 30 in NNE 0.9 mph 10 mph 58% 0 in 844 W/m2
12:05 55 °F 41 °F 30 in NW 2.9 mph 11 mph 59% 0 in 816 W/m2
12:10 55.8 °F 41.2 °F 30 in West 2 mph 5 mph 58% 0 in 828 W/m2
12:15 55.9 °F 41 °F 30 in East 4 mph 10 mph 57% 0 in 824 W/m2
12:20 56.1 °F 41.2 °F 30 in West 4 mph 8 mph 57% 0 in 886 W/m2
12:25 56.1 °F 40.6 °F 30 in NW 4 mph 9 mph 56% 0 in 819 W/m2
12:30 55.9 °F 41 °F 30 in ENE 10.1 mph 10 mph 57% 0 in 861 W/m2
12:35 55.9 °F 41.4 °F 30 in NE 0.9 mph 5 mph 58% 0 in 821 W/m2
12:40 56.5 °F 41 °F 30 in ENE 4 mph 8 mph 56% 0 in 835 W/m2
12:45 56.8 °F 41.4 °F 30 in SE 2.9 mph 11 mph 56% 0 in 823 W/m2
12:50 56.8 °F 40.8 °F 30 in East 4 mph 7 mph 55% 0 in 840 W/m2
12:55 56.8 °F 40.5 °F 30 in East 4 mph 5 mph 54% 0 in 817 W/m2
13:00 57 °F 41 °F 30 in West 0.9 mph 5 mph 55% 0 in 851 W/m2
13:05 57.4 °F 41.4 °F 30 in WNW 2.9 mph 11 mph 55% 0 in 926 W/m2
13:10 57.7 °F 41.7 °F 30 in NNW 11 mph 11 mph 55% 0 in 963 W/m2
13:15 58.3 °F 41.2 °F 30 in East 6.9 mph 9 mph 53% 0 in 988 W/m2
13:20 58.8 °F 41.2 °F 30 in SE 6.9 mph 10 mph 52% 0 in 817 W/m2
13:25 58.6 °F 41 °F 30 in NNW 2.9 mph 4 mph 52% 0 in 693 W/m2
13:30 58.6 °F 41 °F 30 in South 2 mph 6 mph 52% 0 in 496 W/m2
13:35 58.3 °F 40.3 °F 30 in NW 2.9 mph 6 mph 51% 0 in 840 W/m2
13:40 57.7 °F 40.3 °F 30 in East 2.9 mph 9 mph 52% 0 in 415 W/m2
13:45 57.7 °F 40.6 °F 30 in NNE 4 mph 4 mph 53% 0 in 415 W/m2
13:50 57.9 °F 40.5 °F 30 in ENE 2.9 mph 10 mph 52% 0 in 510 W/m2
13:55 57.7 °F 39.7 °F 30 in East 4 mph 6 mph 51% 0 in 336 W/m2
14:00 57.6 °F 40.1 °F 30 in ESE 0.9 mph 3 mph 52% 0 in 441 W/m2
14:05 57.9 °F 39.9 °F 30 in ESE 2 mph 7 mph 51% 0 in 378 W/m2
14:10 57.7 °F 39.7 °F 30 in NE 4.9 mph 8 mph 51% 0 in 450 W/m2
14:15 57.6 °F 40.1 °F 30 in SE 4 mph 9 mph 52% 0 in 513 W/m2
14:20 57.7 °F 40.3 °F 30 in East 6 mph 7 mph 52% 0 in 1051 W/m2
14:25 58.1 °F 40.1 °F 30 in ESE 6 mph 7 mph 51% 0 in 378 W/m2
14:30 58.1 °F 39.6 °F 30 in NW 2.9 mph 7 mph 50% 0 in 388 W/m2
14:35 57.9 °F 38.3 °F 30 in ESE 2.9 mph 4 mph 48% 0 in 392 W/m2
14:40 58.3 °F 39.7 °F 30 in East 2 mph 8 mph 50% 0 in 346 W/m2
14:45 57.9 °F 39.4 °F 30 in North 2 mph 7 mph 50% 0 in 348 W/m2
14:50 57.9 °F 39.4 °F 30 in NE 4.9 mph 7 mph 50% 0 in 373 W/m2
14:55 57.7 °F 39.2 °F 30 in NE 0.9 mph 10 mph 50% 0 in 420 W/m2
15:00 57.7 °F 39.2 °F 30 in WSW 2.9 mph 8 mph 50% 0 in 418 W/m2
15:05 58.3 °F 39.2 °F 30 in NE 6 mph 7 mph 49% 0 in 260 W/m2
15:10 58.1 °F 39.6 °F 30 in SE 4 mph 13 mph 50% 0 in 220 W/m2
15:15 57.7 °F 39.7 °F 30 in East 6.9 mph 10 mph 51% 0 in 246 W/m2
15:20 57.4 °F 39.9 °F 30 in ENE 4 mph 11 mph 52% 0 in 299 W/m2
15:25 57.2 °F 39.7 °F 30 in North 2 mph 5 mph 52% 0 in 338 W/m2
15:30 57.6 °F 40.1 °F 30 in NW 4 mph 11 mph 52% 0 in 399 W/m2
15:35 58.1 °F 40.6 °F 30 in ENE 8.1 mph 8 mph 52% 0 in 874 W/m2
15:40 58.6 °F 39.6 °F 30 in ENE 11 mph 11 mph 49% 0 in 865 W/m2
15:45 59.4 °F 40.3 °F 30 in SSW 2 mph 14 mph 49% 0 in 932 W/m2
15:50 59.5 °F 40.3 °F 30 in NNW 2.9 mph 9 mph 49% 0 in 759 W/m2
15:55 59.7 °F 39.9 °F 30 in East 4 mph 14 mph 48% 0 in 438 W/m2
16:00 59.2 °F 40.1 °F 30 in East 2.9 mph 7 mph 49% 0 in 425 W/m2
16:05 59 °F 39.9 °F 30 in NE 0.9 mph 6 mph 49% 0 in 350 W/m2
16:10 58.8 °F 39.7 °F 30 in ENE 4.9 mph 7 mph 49% 0 in 429 W/m2
16:15 59 °F 41.4 °F 29.9 in East 8.9 mph 12 mph 52% 0.02 in 322 W/m2
16:20 58.8 °F 40.3 °F 29.9 in ENE 4 mph 5 mph 50% 0.02 in 295 W/m2
16:25 58.6 °F 40.6 °F 29.9 in East 2.9 mph 12 mph 51% 0.02 in 424 W/m2
16:30 58.6 °F 39.6 °F 29.9 in South 2 mph 10 mph 49% 0.02 in 359 W/m2
16:35 58.6 °F 40.1 °F 29.9 in South 2 mph 11 mph 50% 0.02 in 301 W/m2
16:40 58.6 °F 39.6 °F 29.9 in ENE 0.9 mph 14 mph 49% 0.02 in 257 W/m2
16:45 58.6 °F 40.1 °F 29.9 in NNE 0.9 mph 6 mph 50% 0.02 in 322 W/m2
16:50 59.2 °F 39.6 °F 29.9 in NE 4.9 mph 15 mph 48% 0.02 in 329 W/m2
16:55 59.2 °F 39.6 °F 29.9 in ENE 4 mph 11 mph 48% 0.02 in 267 W/m2
17:00 58.8 °F 39.2 °F 29.9 in East 6 mph 9 mph 48% 0.02 in 267 W/m2
17:05 58.6 °F 39 °F 29.9 in ENE 0.9 mph 12 mph 48% 0.02 in 308 W/m2
17:10 58.6 °F 39 °F 29.9 in North 0.9 mph 4 mph 48% 0.02 in 617 W/m2
17:15 59.2 °F 39 °F 29.9 in NNW 6 mph 12 mph 47% 0 in 693 W/m2
17:20 59.9 °F 39 °F 29.9 in SSE 4 mph 13 mph 46% 0 in 668 W/m2
17:25 59.7 °F 38.8 °F 29.9 in ENE 2.9 mph 12 mph 46% 0 in 206 W/m2
17:30 58.8 °F 38.1 °F 29.9 in NE 2 mph 13 mph 46% 0 in 211 W/m2
17:35 58.5 °F 38.3 °F 29.9 in NE 4.9 mph 9 mph 47% 0 in 582 W/m2
17:40 58.6 °F 39.6 °F 29.9 in ENE 2 mph 12 mph 49% 0 in 302 W/m2
17:45 58.8 °F 38.7 °F 29.9 in NE 2.9 mph 7 mph 47% 0 in 258 W/m2
17:50 58.8 °F 38.7 °F 29.9 in East 6.9 mph 8 mph 47% 0 in 253 W/m2
17:55 58.6 °F 38.5 °F 29.9 in NNE 4.9 mph 14 mph 47% 0 in 257 W/m2
18:00 58.5 °F 38.3 °F 29.9 in NNE 2.9 mph 7 mph 47% 0 in 267 W/m2
18:05 58.5 °F 38.8 °F 29.9 in North 2.9 mph 7 mph 48% 0 in 380 W/m2
18:10 58.8 °F 38.7 °F 29.9 in ESE 2.9 mph 7 mph 47% 0 in 427 W/m2
18:15 58.6 °F 37.9 °F 29.9 in SSE 2 mph 6 mph 46% 0 in 139 W/m2
18:20 58.5 °F 38.3 °F 29.9 in North 2 mph 12 mph 47% 0 in 123 W/m2
18:25 58.3 °F 37.6 °F 29.9 in ESE 6 mph 9 mph 46% 0 in 128 W/m2
18:30 57.9 °F 37.8 °F 30 in NE 2.9 mph 6 mph 47% 0 in 132 W/m2
18:35 57.7 °F 37.6 °F 29.9 in ENE 6.9 mph 13 mph 47% 0 in 141 W/m2
18:40 57.7 °F 38.1 °F 29.9 in East 0.9 mph 4 mph 48% 0 in 137 W/m2
18:45 57.7 °F 37.6 °F 29.9 in ESE 4 mph 13 mph 47% 0 in 135 W/m2
18:50 57.6 °F 36.9 °F 30 in SE 2.9 mph 16 mph 46% 0 in 111 W/m2
18:55 57.4 °F 37.4 °F 29.9 in East 6.9 mph 8 mph 47% 0 in 97 W/m2
19:00 57.4 °F 37.4 °F 29.9 in ESE 6 mph 16 mph 47% 0 in 91 W/m2
19:05 57.4 °F 37.4 °F 29.9 in ESE 2 mph 6 mph 47% 0 in 97 W/m2
19:10 57 °F 37 °F 29.9 in East 6 mph 11 mph 47% 0 in 100 W/m2
19:15 56.8 °F 37.4 °F 30 in ENE 2 mph 8 mph 48% 0 in 116 W/m2
19:20 56.8 °F 37.4 °F 29.9 in East 2.9 mph 9 mph 48% 0 in 121 W/m2
19:25 56.8 °F 37.4 °F 30 in East 4.9 mph 6 mph 48% 0 in 107 W/m2
19:30 56.8 °F 36.9 °F 29.9 in West 6.9 mph 8 mph 47% 0 in 79 W/m2
19:35 56.8 °F 37.4 °F 30 in ESE 4 mph 14 mph 48% 0 in 46 W/m2
19:40 56.7 °F 37.2 °F 29.9 in NE 11 mph 11 mph 48% 0 in 35 W/m2
19:45 56.7 °F 37.2 °F 29.9 in East 6.9 mph 14 mph 48% 0 in 35 W/m2
19:50 56.5 °F 37 °F 29.9 in ENE 4.9 mph 5 mph 48% 0 in 33 W/m2
19:55 56.1 °F 37.2 °F 29.9 in NE 4.9 mph 6 mph 49% 0 in 33 W/m2
20:00 55.9 °F 37 °F 30 in ENE 2 mph 2 mph 49% 0 in 35 W/m2
20:05 55.9 °F 37 °F 29.9 in NNW 4 mph 5 mph 49% 0 in 40 W/m2
20:10 55.8 °F 36.9 °F 29.9 in NE 2 mph 6 mph 49% 0 in 46 W/m2
20:15 55.8 °F 37.4 °F 29.9 in East 4.9 mph 6 mph 50% 0 in 70 W/m2
20:20 55.8 °F 37.9 °F 29.9 in Calm   1 mph 51% 0 in 44 W/m2
20:25 55.6 °F 37.2 °F 29.9 in Calm   5 mph 50% 0 in 33 W/m2
20:30 55.6 °F 37.8 °F 29.9 in Calm   2 mph 51% 0 in 33 W/m2
20:35 55.2 °F 37.4 °F 30 in North 2.9 mph 7 mph 51% 0 in 32 W/m2
20:40 55 °F 37.8 °F 30 in NW 2 mph 3 mph 52% 0 in 25 W/m2
20:45 54.9 °F 37.6 °F 30 in NW 0.9 mph 7 mph 52% 0 in 21 W/m2
20:50 54.9 °F 37.6 °F 30 in Calm   1 mph 52% 0 in 16 W/m2
20:55 54.7 °F 37.4 °F 29.9 in Calm   2 mph 52% 0 in 12 W/m2
21:00 54.3 °F 37 °F 30 in NNW 0.9 mph 2 mph 52% 0 in 11 W/m2
21:05 54.1 °F 37.4 °F 29.9 in Calm   6 mph 53% 0 in 7 W/m2
21:10 54 °F 37.2 °F 30 in WSW 0.9 mph 2 mph 53% 0 in 5 W/m2
21:15 53.8 °F 37 °F 30 in NNW 2 mph 2 mph 53% 0 in 0 W/m2
21:20 53.4 °F 37.2 °F 30 in NNW 2 mph 4 mph 54% 0 in 0 W/m2
21:26 53.4 °F 37.2 °F 30 in ENE 4 mph 4 mph 54% 0 in 0 W/m2
21:31 53.2 °F 37 °F 30 in Calm   2 mph 54% 0 in 0 W/m2
21:36 53.1 °F 37.4 °F 30 in Calm   1 mph 55% 0 in 0 W/m2
21:41 52.9 °F 37.6 °F 30 in Calm   1 mph 56% 0 in 0 W/m2
21:46 52.5 °F 37.2 °F 30 in WNW 0.9 mph 4 mph 56% 0 in 0 W/m2
21:51 52.3 °F 37 °F 30 in NNE 0.9 mph 1 mph 56% 0 in 0 W/m2
21:56 52.3 °F 37 °F 30 in NW 0.9 mph 4 mph 56% 0 in 0 W/m2
22:01 52.3 °F 37 °F 30 in NE 0.9 mph 3 mph 56% 0 in 0 W/m2
22:06 52.3 °F 37 °F 30 in East 4 mph 8 mph 56% 0 in 0 W/m2
22:11 52.3 °F 37 °F 30 in NNW 2 mph 4 mph 56% 0 in 0 W/m2
22:16 52.2 °F 36.9 °F 30 in North 0.9 mph 5 mph 56% 0 in 0 W/m2
22:21 52.2 °F 36.9 °F 30 in NW 2.9 mph 3 mph 56% 0 in 0 W/m2
22:26 52.2 °F 37.4 °F 30 in ENE 0.9 mph 4 mph 57% 0 in 0 W/m2
22:31 52.2 °F 37.4 °F 30 in NE 0.9 mph 4 mph 57% 0 in 0 W/m2
22:36 52 °F 37.2 °F 30 in NE 0.9 mph 1 mph 57% 0 in 0 W/m2
22:41 52 °F 37.2 °F 30 in ENE 0.9 mph 4 mph 57% 0 in 0 W/m2
22:46 52 °F 37.2 °F 30 in Calm   2 mph 57% 0 in 0 W/m2
22:52 52 °F 37.2 °F 30 in NNW 2 mph 3 mph 57% 0 in 0 W/m2
22:57 51.8 °F 37.6 °F 30 in Calm   2 mph 58% 0 in 0 W/m2
23:02 51.8 °F 37.6 °F 30 in WNW 0.9 mph 2 mph 58% 0 in 0 W/m2
23:07 51.6 °F 37.4 °F 30 in Calm   2 mph 58% 0 in 0 W/m2
23:12 51.4 °F 37.2 °F 30 in NNE 0.9 mph 2 mph 58% 0 in 0 W/m2
23:17 51.4 °F 37.6 °F 30 in WNW 2 mph 3 mph 59% 0 in 0 W/m2
23:22 51.4 °F 37.6 °F 30 in Calm   2 mph 59% 0 in 0 W/m2
23:27 51.3 °F 37.8 °F 30 in Calm   3 mph 60% 0 in 0 W/m2
23:32 51.3 °F 37.8 °F 30 in WNW 0.9 mph 2 mph 60% 0 in 0 W/m2
23:37 51.1 °F 38.1 °F 30 in Calm   3 mph 61% 0 in 0 W/m2
23:42 50.9 °F 37.6 °F 30 in West 0.9 mph 2 mph 60% 0 in 0 W/m2
23:47 50.7 °F 37.8 °F 30 in Calm   3 mph 61% 0 in 0 W/m2
23:52 50.5 °F 37.9 °F 30 in West 2 mph 2 mph 62% 0 in 0 W/m2
23:58 50.2 °F 37.2 °F 30 in West 0.9 mph 3 mph 61% 0 in 0 W/m2
Juneau County Weather
Compliments of Weather Underground - 4 mb